Regional Weather Roundup
Issued by NWS Burlington, VT

Home | Current Version | Previous Version | Text Only | Print | Product List | Glossary On
Versions: 1 2 3 4 5 6 7 8 9 10 11 12 13 14 15 16 17 18 19 20 21 22 23 24 25 26 27 28 29 30 31 32 33 34 35 36 37 38 39 40 41 42 43 44 45 46 47 48 49 50
000
ASUS41 KBTV 290030
RWRBTV
VERMONT REGIONAL WEATHER ROUNDUP
NATIONAL WEATHER SERVICE BURLINGTON VT
800 PM EDT MON JUL 28 2014

NOTE: "FAIR" INDICATES FEW OR NO CLOUDS BELOW 12,000 FEET WITH NO
SIGNIFICANT WEATHER AND/OR OBSTRUCTIONS TO VISIBILITY.

* THESE REPORTS ARE NOT UNDER NWS QUALITY CONTROL AND/OR DO NOT
  REPORT WEATHER SUCH AS PRECIPITATION AND FOG.

VTZ001>019-290100-
_____VERMONT_____


CITY           SKY/WX    TMP DP  RH WIND       PRES   REMARKS
BURLINGTON     RAIN      63  60  90 N14G23    29.57R FOG
6HR MIN TEMP:  63; 6HR MAX TEMP:  70; 6HR PCP:  0.96;

MONTPELIER     HVY RAIN  63  62  97 NW9       29.55R FOG
6HR MIN TEMP:  64; 6HR MAX TEMP:  69;

MORRISVILLE    LGT RAIN  62  58  86 NW10G21   29.55R
6HR MIN TEMP:  62; 6HR MAX TEMP:  69; 6HR PCP:  0.08;

ST. JOHNSBURY*   N/A     67  65  93 MISG      29.48R
6HR MIN TEMP:  65; 6HR MAX TEMP:  70; 6HR PCP:  0.01;

LYNDONVILLE*     N/A    N/A N/A N/A MISG        N/A
MIDDLEBURY*    HVY RAIN  62  62 100 N13G21    29.56R
6HR MIN TEMP:  62; 6HR MAX TEMP:  68; 6HR PCP:  0.16;

RUTLAND*       CLOUDY    63  59  88 NW10G18   29.56R
6HR MIN TEMP:  63; 6HR MAX TEMP:  73;

SPRINGFIELD    CLOUDY    65  64  97 S3        29.51R
6HR MIN TEMP:  64; 6HR MAX TEMP:  73; 6HR PCP:  1.95;

HIGHGATE*      LGT RAIN  60  59  95 N14G22    29.58R
6HR MIN TEMP:  60; 6HR MAX TEMP:  64;

NEWPORT*       DRIZZLE  N/A N/A N/A NW8       29.55R
BENNINGTON     LGT RAIN  64  61  90 N6        29.57R FOG
6HR MIN TEMP:  65; 6HR MAX TEMP:  75; 6HR PCP:  0.18;

SUTTON*          N/A     61 N/A N/A MISG        N/A
GALLUP MILLS*    N/A     48 N/A N/A MISG        N/A
UNION VILLAGE*   N/A     66 N/A N/A MISG        N/A
MT. MANSFIELD*   N/A     52 N/A N/A N25G44      N/A

_____LAKE CHAMPLAIN_____


CITY           SKY/WX    TMP DP  RH WIND       PRES   REMARKS
DIAMOND ISL*     N/A     63  59  88 NW20        N/A

$$

NYZ007-026>031-035-052-083-290100-
_____NORTHERN NEW YORK_____


CITY           SKY/WX    TMP DP  RH WIND       PRES   REMARKS
PLATTSBURGH    LGT RAIN  61  59  93 NW15      29.60R
6HR MIN TEMP:  61; 6HR MAX TEMP:  63; 6HR PCP:  0.48;

SARANAC LAKE   CLOUDY    56  55  97 N8        29.64R FOG
6HR MIN TEMP:  56; 6HR MAX TEMP:  59; 6HR PCP:  0.30;

MASSENA        CLOUDY    62  59  90 NW6       29.68R
6HR MIN TEMP:  61; 6HR MAX TEMP:  62; 6HR PCP:  0.44;

OGDENSBURG*    MOCLDY    63  57  82 NW6       29.70R
POTSDAM*       RAIN      61  61 100 NW3       29.69S
PARISHVILLE*     N/A     61 N/A N/A NW7         N/A
WATERTOWN      CLOUDY    61  55  81 CALM      29.73R
6HR MIN TEMP:  61; 6HR MAX TEMP:  63; 6HR PCP:  0.14;

FT DRUM        CLOUDY    57  57 100 NW5       29.73R
6HR MIN TEMP:  58; 6HR MAX TEMP:  60; 6HR PCP:  0.35;

ALBANY         MOCLDY    67  59  75 NW12      29.58R
6HR MIN TEMP:  67; 6HR MAX TEMP:  75; 6HR PCP:  0.41;

GLENS FALLS    LGT RAIN  64  61  90 NW7       29.57R
6HR MIN TEMP:  64; 6HR MAX TEMP:  73; 6HR PCP:  0.46;


$$
NHZ002-005-011-290100-
_____NEW HAMPSHIRE_____


CITY           SKY/WX    TMP DP  RH WIND       PRES   REMARKS
LEBANON        LGT RAIN  68  65  90 S5        29.49R
6HR MIN TEMP:  68; 6HR MAX TEMP:  75; 6HR PCP:  0.20;

KEENE          CLOUDY    66  57  72 S5        29.53R
6HR MIN TEMP:  64; 6HR MAX TEMP:  81; 6HR PCP:  0.41;

MT WASHINGTON  TSTM      52  48  87 NW14        N/A
6HR MIN TEMP:  48; 6HR MAX TEMP:  54;

PLYMOUTH       MOCLDY    64  63  94 CALM      29.46R FOG
6HR MIN TEMP:  63; 6HR MAX TEMP:  74; 6HR PCP:  0.89;

WHITEFIELD     LGT RAIN  67  65  93 NW6       29.48F
6HR MIN TEMP:  67; 6HR MAX TEMP:  72; 6HR PCP:  0.18;


$$

_____REGIONAL QUEBEC LOCATIONS_____


CITY           SKY/WX    TMP DP  RH WIND       PRES   REMARKS
MONTREAL       LGT RAIN  59  55  88 N14       29.62S
QUEBEC CITY    LGT RAIN  61  59  94 N6        29.56F FOG
SHERBROOKE     LGT RAIN  61  59  94 NW5       29.51R FOG

_____REGIONAL ONTARIO LOCATIONS_____


CITY           SKY/WX    TMP DP  RH WIND       PRES   REMARKS
OTTAWA         MOCLDY    64  52  63 NW9       29.71R

______KEY______
VSB  - VISIBILITY IN MILES
WCI  - WIND CHILL INDEX
HX   - HEAT INDEX
$$
NNNN


USA.gov is the U.S. government's official web portal to all federal, state and local government web resources and services.